STARLINK-1337, 45582

Orbit data source: Space-Track

STARLINK-1337, 45582 is a payload satellite owned by SpaceX/Seattle (US) in LEO that was launched on Wed, 22 Apr 2020 UTC via an FALCON 9 launch vehicle from the Air Force Eastern Test Range (AFETR). Payload-class satellites include a variety of spacecraft equipped with specific instruments for various scientific and technological missions. These include communications satellites like Starlink; space stations such as the ISS; scientific satellites like the Hubble; Earth observation satellites from companies like Planet Labs, Umbra, and HawkEye 360; GPS; miniature CubeSats for education and research; and military/defense satellites.

Not visible in the next 10 days
Identifier
45582, 2020-025BD
Orbit
LEO
Country
Flag of USUS
Related business
Manufacturer
SpaceX/Seattle
Mission
Partially operational Commercial Communications
Bus & Motor
STARLINK, Unknown motor
Mass
260 kg wet, ~248 kg dry
Launch date (UTC)
2020-04-22 (6 years ago)
Launch vehicle
FALCON 9
Launch site
Air Force Eastern Test Range (AFETR)
Object type
Payload
Rocket body
Debris
Shape & HBR
Box + 1 Pan, 10.1 m
Radar Cross Section
13.562 m², Large (>1 m²)

Expand to show TLE details & history
Last TLE update: 5 hours ago

TLE from 5 hours ago
0 STARLINK-1337
1 45582U 20025BD  26255.33335648  .00279739  41991-4  68485-3 0  9997
2 45582  53.0345 211.5942 0006275  73.5322 251.4225 15.95648676  6040
Epoch: 2026-09-12T08:00Z
TLE epoch observation values (Epoch: 2026-09-12T08:00:01.999Z)
Latitude
-27.56765°
Longitude
77.24451°
Altitude
296.049 km
Speed
7.729 km/s
True Right ascension
12h 34m 23s
True Declination
-27° 25' 01"
Sunlit
Object was in daylight at epoch
Visualization orbit readout
Latitude
Unknown
Longitude
Unknown
Altitude
Unknown
Speed
Unknown
Apparent Right ascension
Unknown
Apparent Declination
Unknown
Sunlit
N/A
Visualization observer readout
Local Sidereal Time
05:27:58
Azimuth
Unknown
Elevation
Unknown
Doppler factor
Unknown
Orbital elements
Apogee altitude
290.974 km
Perigee altitude
282.61 km
Semi-major axis
6,664.929 km
Eccentricity
0.00063
Inclination
53.0345°
RAAN
211.5942°
Arg. of periapsis
73.5322°
True anomaly
251.35436°
Mean anomaly
251.4225°
Eccentric anomaly
251.38843°
Mean motion
3.98887 °/min
Orbital period
90.25 mins
BSTAR
0.00068485
Loading maneuver chart data...
Computing Atmospheric mass density...
Loading historical data...
Loading historical data...
Loading historical data...
Loading historical data...
Loading historical data...
Loading historical data...
Loading historical data...

Documentation

Showing up to 5 results
|